Flag Weather past 2 weeks in Bendigo, Victoria, Australia

Now
49 °F

Cool.


Feels Like: 44 °F
Forecast: 47 / 84 °F
Wind: 13 mph from Southeast

Location: Bendigo Airport Aws

Current Time: Nov 28, 2014 at 6:40:02 AM

Latest Report: Nov 28, 2014 at 6:00 AM


Visibility: N/A

Pressure: 30.11 "Hg

Humidity: 78%

Dew point: 42 °F

Location of BendigoLocation

Historic Weather in Bendigo — Graph

°F

Bendigo temperature yesterday

Maximum temperature yesterday: 78 °F (at 4:00 PM)
Minimum temperature yesterday: 48 °F (at 6:00 AM)
Average temperature yesterday: 62 °F

Past Weeks' High & Low Weather Summary

 TemperatureHumidityPressure
High92 °F (Nov 13, 3:00 PM)99% (Nov 16, 3:00 AM)30.22 "Hg (Nov 16, 3:00 AM)
Low41 °F (Nov 18, 6:00 AM)10% (Nov 13, 3:00 PM)29.59 "Hg (Nov 16, 3:00 AM)
Average65 °F55%29.92 "Hg
* Reported Nov 13 4:00 AM — Nov 28 4:00 AM, Bendigo, Weather by CustomWeather, © 2014

Note: Actual official high and low records may vary slightly from our data, if they occured in-between our weather recording intervals... More about our weather records

Advertising

Bendigo weather history for previous 24 hours

 ConditionsComfort  
Time TempWeatherWind HumidityBarometerVisibility
4:00 AM
Nov 28
50 °FCool.13 mph76%30.08 "HgN/A
3:00 AM50 °FCool.15 mph73%30.09 "HgN/A
1:00 AM52 °FCool.16 mph68%30.11 "HgN/A
12:00 AM53 °FCool.15 mph64%30.14 "HgN/A
10:00 PM
Nov 27
57 °FRefreshingly cool.14 mph59%30.15 "HgN/A
9:00 PM60 °FRefreshingly cool.13 mph44%30.14 "HgN/A
7:00 PM70 °FMild.16 mph31%30.13 "HgN/A
6:00 PM74 °FMild.15 mph30%30.11 "HgN/A
4:00 PM78 °FPleasantly warm.12 mph24%30.12 "HgN/A
3:00 PM76 °FMild.12 mph25%30.14 "HgN/A
1:00 PM73 °FMild.10 mph29%30.17 "HgN/A
12:00 PM71 °FMild.13 mph32%30.19 "HgN/A
10:00 AM63 °FMild.13 mph43%30.21 "HgN/A
9:00 AM58 °FRefreshingly cool.15 mph57%30.22 "HgN/A
7:00 AM51 °FCool.7 mph74%30.20 "HgN/A
6:00 AM48 °FCool.9 mph80%30.19 "HgN/A
Weather by CustomWeather, © 2014

See weather overviewHow to use our weather pages